Location: Observatorio Ernesto Juarez Davis
(29.2175°N, 110.7606°W)
Time: 18:07:07
(UTC-07:00)

ISS - Visible Passes

Search period start: 20 June 2018 00:00
Search period end: 30 June 2018 00:00
Orbit: 402 x 406 km, 51.6° (Epoch: 21 June)

Date Brightness Start Highest point End Pass type
(mag) Time Alt. Az. Time Alt. Az. Time Alt. Az.
27 Jun -1.8 04:47:47 10° S 04:50:26 23° SE 04:53:06 10° ENE visible
28 Jun -0.9 03:57:46 10° SE 03:58:14 10° SE 03:58:42 10° ESE visible
29 Jun -3.8 04:39:08 13° SW 04:41:58 77° SE 04:45:14 10° NE visible
